Wind_Speed
10 6 7 3 4 4 4 6 13 15 7 6 7 9 11 5 3 4 22 29 30 27 23 20 19 19 19 18 17 15 14 13 12 10 9 8 7 7 6 7 7 7 7 8 8 8 8 9 9
10 9 9 3 3 3 4 10 14 22 5 11 7 10 10 9 8 14 18 28 28 27 23 21 19 19 18 17 16 15 13 12 10 9 8 6 5 4 5 5 6 7 7 7 7 8 8 9 10
13 5 2 4 3 5 6 7 7 5 12 9 5 9 5 6 13 12 38 29 27 23 22 21 19 18 18 17 16 14 12 10 9 7 5 4 3 3 4 4 5 6 6 6 7 7 8 9 10
5 3 4 2 7 4 7 13 3 5 9 19 17 7 5 19 12 24 33 25 24 20 21 21 19 18 17 16 15 13 11 9 7 5 4 3 2 3 3 4 4 4 4 5 5 6 7 8 9
9 2 2 3 5 2 6 18 11 15 9 17 20 12 6 10 27 33 31 28 30 25 23 22 20 18 17 16 15 12 10 8 6 4 3 3 2 2 2 2 3 3 4 4 5 6 8 10 12
3 2 4 5 2 5 4 19 17 20 20 16 17 12 5 22 24 23 22 33 34 28 26 22 19 18 17 15 14 12 10 8 7 5 4 3 3 2 2 1 1 2 3 4 6 7 9 11 14
5 1 7 10 7 3 9 18 10 7 28 12 14 9 9 12 21 21 23 38 29 24 24 21 20 18 16 15 14 12 10 9 7 6 5 4 3 4 3 2 1 1 2 5 8 10 11 13 18
3 2 11 9 9 4 2 9 20 20 8 6 18 7 13 18 25 22 28 30 26 23 20 21 19 18 17 15 14 12 11 9 8 6 6 5 6 6 5 4 3 2 4 7 9 11 12 17 20
7 3 8 13 4 6 6 6 4 10 15 26 4 17 22 31 26 20 21 29 30 24 20 18 17 18 16 15 14 13 12 10 9 9 8 6 6 6 8 4 5 4 7 10 11 11 14 17 16
4 2 9 14 2 4 3 11 15 14 17 26 11 17 26 29 26 25 21 18 29 30 27 21 20 19 20 17 17 14 13 13 12 12 7 2 1 7 9 5 7 5 9 9 9 10 11 11 18
8 9 12 17 5 9 7 20 5 19 14 6 10 5 5 16 21 22 25 26 28 34 33 27 25 24 26 23 20 18 16 15 13 12 8 4 4 5 9 5 3 2 4 5 7 11 14 19 23
8 13 13 14 4 5 7 15 7 10 5 13 9 13 6 10 11 18 21 28 27 31 33 34 26 28 31 23 23 20 20 16 16 17 13 10 7 5 6 7 6 6 8 11 14 17 20 20 23
9 15 13 12 10 5 2 11 9 7 13 12 7 18 9 7 14 24 30 31 28 26 31 32 29 20 30 21 23 19 18 21 21 17 15 11 10 3 4 4 5 7 9 11 16 21 19 20 20
11 13 11 10 11 6 3 19 14 15 17 12 15 15 12 11 17 18 24 29 29 28 31 33 28 23 23 17 21 23 21 18 16 15 12 7 6 1 4 5 9 8 11 14 18 15 17 15 17
9 9 9 6 7 5 4 6 9 22 17 20 18 19 21 20 20 18 26 35 31 29 28 31 27 24 21 16 18 16 15 12 15 13 9 4 1 5 6 6 10 13 16 17 13 13 15 20 21
9 7 5 8 10 10 4 9 10 23 17 15 21 21 22 24 19 22 42 34 24 25 29 29 25 23 20 18 15 12 7 6 13 9 10 13 9 6 8 7 11 14 16 12 14 18 21 21 24
6 6 9 13 13 8 8 9 9 17 19 15 14 16 19 5 18 21 34 26 32 30 21 25 24 23 21 19 14 11 12 14 17 14 13 10 3 7 7 7 9 13 12 14 17 16 19 22 21
10 6 9 11 11 12 7 7 9 10 10 22 17 14 22 20 16 24 27 25 10 22 24 16 24 23 18 17 17 16 15 15 12 9 6 1 7 7 9 9 10 8 13 14 12 18 19 18 19
12 12 14 11 5 8 9 7 10 9 4 7 18 19 18 21 17 28 38 39 43 14 6 15 25 20 15 17 18 19 14 10 4 3 4 8 8 7 6 8 7 9 14 10 14 15 16 18 18
16 10 10 8 10 4 9 7 3 5 6 6 18 15 17 14 12 15 33 46 42 31 3 3 11 19 21 19 14 14 10 7 5 4 4 5 7 7 7 4 4 10 9 10 14 13 12 14 16
10 3 8 8 12 6 4 1 3 10 5 17 16 16 12 18 16 12 13 17 21 18 2 14 21 20 14 13 12 13 11 11 7 2 2 5 9 8 2 2 5 5 8 11 13 13 12 11 17
5 4 8 12 7 4 3 5 6 8 10 14 16 19 17 19 15 13 14 13 14 18 11 14 17 19 16 14 13 14 12 8 7 4 1 6 6 4 2 2 3 6 10 11 13 12 14 12 15
7 5 6 8 9 4 12 2 8 5 10 11 16 21 18 18 18 17 18 23 24 17 15 14 16 15 14 15 15 14 15 12 8 5 5 6 9 7 4 2 6 7 10 12 12 14 15 12 12
5 5 7 4 3 3 10 3 10 7 9 9 15 20 19 18 17 17 23 25 25 18 16 15 16 16 13 11 9 9 9 8 7 8 10 10 12 11 6 9 8 9 12 14 14 15 15 14 14
5 1 2 3 3 7 8 6 15 8 15 18 19 18 18 17 16 15 14 18 22 18 16 16 17 17 13 11 11 11 10 9 10 9 10 12 12 12 16 12 15 14 14 16 13 15 15 13 15
7 9 6 6 5 6 7 6 9 11 14 14 15 16 17 16 14 14 19 22 25 24 21 19 18 17 12 9 11 10 9 9 10 10 10 11 12 14 14 16 14 15 15 16 14 17 16 16 20
9 6 9 4 6 3 4 4 5 14 14 14 13 14 13 14 11 12 17 22 26 24 22 21 20 13 10 10 9 9 10 9 8 8 8 9 11 13 13 14 15 15 15 15 17 15 15 17 16
11 7 4 1 5 5 7 4 4 10 11 11 11 10 9 11 13 12 16 23 24 22 22 18 14 13 12 9 9 10 7 6 6 6 8 11 12 13 15 17 17 18 17 15 14 13 12 18 20
4 5 3 4 6 6 3 5 8 14 15 14 13 13 16 13 14 12 16 23 23 21 20 18 13 12 10 10 7 5 3 4 4 6 7 10 10 13 15 16 16 16 16 13 14 16 20 23 25
11 11 10 5 5 3 6 5 1 13 16 19 19 18 15 15 13 11 18 22 20 20 17 13 14 15 9 5 5 3 2 3 4 2 6 8 9 11 13 15 15 13 11 15 20 25 24 24 23
Wind_Direction
329 317 323 298 52 83 84 107 348 291 278 82 59 72 66 73 139 179 133 132 138 138 140 138 137 139 142 141 142 141 137 133 129 124 120 114 104 93 80 72 66 56 48 40 34 28 22 17 9
320 305 222 277 104 86 207 164 189 226 216 95 77 93 71 67 81 119 112 136 140 139 143 141 139 140 144 145 146 145 144 144 139 134 126 113 101 88 79 66 56 44 39 35 29 21 14 6 359
310 274 73 165 196 192 157 223 202 273 303 140 102 107 69 98 121 121 138 135 134 139 144 143 142 141 142 147 148 149 150 149 144 141 131 122 112 90 73 58 47 42 36 27 16 8 1 360 358
319 83 314 96 274 261 185 212 239 274 311 112 113 75 90 149 133 136 138 128 136 144 149 148 147 145 143 148 151 153 155 156 153 155 140 131 118 97 79 55 48 41 21 12 6 4 1 359 348
268 288 296 308 247 170 44 38 313 318 279 107 111 108 76 106 134 141 141 140 149 150 155 154 153 152 151 155 156 158 160 161 161 163 154 146 133 113 80 65 41 15 13 16 8 358 353 348 339
312 114 342 276 87 203 66 85 288 330 306 124 114 118 106 132 141 150 155 145 157 149 154 155 156 159 157 160 159 161 166 165 167 164 159 156 158 152 128 93 358 1 7 359 349 339 335 331 330
207 324 251 294 306 156 158 157 177 241 276 131 134 123 145 133 146 161 147 148 146 144 152 156 160 161 161 163 161 162 162 163 162 162 164 167 172 168 161 180 196 310 336 332 329 327 326 333 336
227 131 287 282 296 281 198 161 131 182 316 23 133 148 157 153 164 175 143 142 140 139 150 159 163 165 167 164 164 164 165 164 163 165 167 172 173 171 174 194 212 310 321 344 333 336 330 333 331
286 315 280 275 287 223 180 98 27 347 3 341 164 133 139 154 170 153 140 142 145 149 151 159 165 170 167 170 169 168 167 165 162 157 156 158 172 176 189 213 278 302 316 321 323 329 333 337 328
182 247 256 267 190 223 217 118 138 94 1 288 27 106 140 159 160 149 167 166 151 158 163 159 163 164 168 173 172 169 168 162 151 147 136 146 222 220 211 267 278 295 333 325 341 341 336 320 318
257 241 261 275 220 193 210 153 117 132 184 197 272 163 240 166 163 164 182 171 170 169 170 171 176 170 173 182 167 160 162 160 158 156 141 145 161 160 144 98 115 319 346 352 314 302 299 310 311
272 266 264 265 247 200 344 149 102 142 223 138 265 248 164 281 180 177 179 177 178 173 173 175 177 176 180 185 173 161 167 163 166 170 198 194 188 182 211 234 262 294 310 295 295 303 314 320 321
262 263 267 277 296 223 163 88 125 122 196 177 188 270 188 248 205 187 178 178 173 167 159 170 167 136 171 179 174 174 173 177 183 198 195 197 209 219 243 284 331 319 293 300 312 324 332 328 329
266 281 256 269 288 312 187 133 122 202 195 175 141 230 274 292 236 170 162 155 161 158 158 161 168 145 149 156 160 163 169 171 177 184 179 173 201 296 339 2 354 314 317 318 329 337 328 327 326
291 290 304 298 259 262 285 297 161 179 198 162 133 229 254 257 237 160 142 153 159 160 161 166 171 175 169 151 154 154 143 155 167 165 151 147 30 350 6 5 341 324 323 337 342 326 325 325 328
301 318 310 272 263 256 155 261 284 168 173 184 180 193 214 231 235 86 71 47 34 158 162 162 172 181 187 187 173 157 152 144 157 143 124 92 81 41 353 359 339 321 335 343 334 336 332 334 339
297 234 253 271 252 203 171 236 253 151 178 194 192 220 214 173 87 74 89 61 20 15 161 168 179 183 186 191 191 172 163 132 131 135 133 122 6 306 310 321 329 330 334 339 342 343 341 345 350
253 258 269 255 264 175 194 214 246 262 222 202 207 61 104 101 112 98 98 89 25 340 337 183 178 180 169 175 164 149 143 127 128 124 119 335 295 311 328 331 340 344 343 351 347 346 352 354 351
267 277 278 282 303 144 195 209 247 269 228 169 91 97 106 104 119 120 135 143 164 212 265 330 153 170 163 152 141 137 121 121 134 214 251 269 317 328 351 339 354 344 354 356 345 350 353 353 355
256 280 288 308 337 90 200 224 226 277 293 136 112 108 121 113 127 123 135 159 178 187 149 306 152 170 182 182 165 136 128 133 172 192 275 328 325 345 326 2 360 344 360 340 342 339 337 339 349
265 285 310 294 312 325 140 303 283 293 326 105 107 107 94 115 128 116 133 146 160 156 153 111 108 115 120 136 132 129 133 122 120 141 285 328 337 330 349 313 353 352 351 343 342 340 325 322 326
263 299 289 289 322 278 131 252 251 242 252 104 103 115 123 125 125 123 133 160 169 184 126 116 110 107 115 121 108 109 113 130 137 146 334 341 341 328 256 262 358 331 342 344 337 333 331 319 314
235 289 269 279 313 304 301 76 266 253 220 115 104 123 123 125 125 123 125 125 127 124 114 114 104 99 97 101 110 111 109 117 123 95 32 36 11 294 277 307 351 320 334 337 320 330 335 330 320
266 275 297 313 38 343 255 233 278 269 148 134 120 118 117 114 111 114 122 123 122 126 118 109 99 86 85 104 120 114 114 96 78 57 34 23 25 47 55 353 358 344 332 329 322 316 325 323 330
173 187 321 340 333 250 265 269 256 284 150 141 131 120 121 119 122 128 134 134 128 122 113 102 105 104 110 112 107 101 88 74 78 52 29 24 17 9 360 354 339 334 328 325 312 324 316 326 320
202 164 164 210 222 260 275 249 270 118 100 101 112 121 125 132 141 146 147 147 143 140 133 131 127 121 116 99 93 89 88 75 55 38 33 30 10 350 340 340 347 338 326 318 310 319 318 320 323
247 236 199 199 275 339 240 114 4 119 123 126 127 133 141 143 137 135 128 126 129 136 141 138 129 124 110 101 90 73 76 65 55 46 31 18 0 357 351 344 339 331 328 325 313 309 320 323 346
179 200 199 339 249 241 271 238 193 143 143 135 137 141 127 131 121 123 126 127 128 129 130 130 123 121 115 110 94 90 70 62 49 53 21 10 15 6 357 354 353 353 352 4 6 16 12 346 343
181 229 218 150 163 196 228 266 188 171 161 162 165 150 145 138 134 129 127 127 128 125 120 124 126 126 114 109 90 80 63 49 47 10 22 11 6 1 357 357 355 356 1 15 7 359 349 341 334
173 190 183 149 274 216 161 264 335 158 176 177 173 155 143 138 127 125 120 133 143 137 136 138 128 127 117 111 101 77 54 36 1 13 8 8 1 353 356 357 353 1 27 9 1 355 350 344 337
Height
799 798 799 801 830 827 843 857 854 824 801 774 773 781 790 784 800 829 803 800 807 810 815 818 820 822 825 827 831 833 835 837 840 841 843 844 846 847 848 849 849 849 849 849 849 849 849 848 848
797 797 799 802 833 851 857 834 839 804 784 773 777 782 789 800 785 793 801 803 806 810 814 817 820 822 825 828 832 834 836 838 840 842 844 845 847 848 848 849 849 850 850 850 850 850 849 849 848
794 795 803 815 827 842 844 818 800 785 782 774 782 775 785 798 791 791 799 803 805 811 814 817 820 822 825 829 832 835 837 839 840 843 844 845 847 848 849 850 850 850 850 851 851 850 850 849 848
794 797 797 822 828 813 809 803 786 784 787 771 775 795 785 786 790 792 798 799 805 810 813 816 820 822 825 829 832 834 837 839 841 843 844 846 847 848 849 849 850 850 851 850 850 850 849 848 848
794 797 821 823 810 800 798 803 801 791 802 779 775 799 797 790 791 796 797 798 803 809 813 816 819 822 824 828 831 834 837 839 841 843 844 845 847 848 849 850 850 850 850 850 850 850 849 848 847
804 798 833 836 809 802 805 799 814 805 804 779 784 791 799 793 794 797 798 800 803 806 811 815 818 821 824 828 830 832 836 837 839 841 843 844 846 847 848 849 850 850 850 850 849 849 849 848 846
806 817 827 817 809 806 811 796 823 819 819 782 777 796 795 792 795 797 799 800 805 808 811 814 817 821 824 826 829 832 834 836 837 839 841 843 844 846 847 848 849 849 849 848 848 847 847 846 844
791 806 816 810 810 810 792 799 787 802 798 780 765 794 799 791 794 797 800 803 805 808 811 815 818 820 823 826 828 831 833 834 836 838 839 841 842 844 846 846 847 847 847 846 846 846 845 844 843
780 818 824 808 798 793 777 793 789 788 796 794 764 770 779 788 792 797 799 804 805 808 810 814 817 820 822 824 827 829 830 833 835 836 837 839 841 843 843 844 845 845 846 845 845 844 843 842 840
796 817 808 779 779 781 772 786 792 800 821 825 789 782 782 786 789 794 798 801 804 807 809 810 814 817 820 823 825 827 829 830 833 834 836 838 840 841 842 842 843 844 844 843 843 842 840 838 836
787 805 784 771 765 766 770 786 789 788 823 815 812 790 791 785 788 790 795 800 801 804 806 807 810 813 816 819 822 825 829 830 831 834 835 837 839 839 840 840 841 842 842 841 839 837 836 835 832
794 777 773 764 757 760 762 772 786 790 804 778 798 790 784 789 787 789 794 799 801 804 807 810 814 816 818 819 820 821 825 829 831 833 834 835 836 837 838 838 838 838 838 837 836 835 833 831 830
785 774 765 758 757 756 749 772 787 796 790 770 778 786 777 787 782 785 789 795 799 803 805 808 814 814 819 821 821 822 825 827 829 831 832 834 834 835 836 837 838 838 834 834 834 832 831 829 826
770 767 763 757 758 756 762 786 778 792 780 776 766 787 788 789 782 779 782 790 796 801 803 808 814 814 817 821 824 824 825 828 830 831 832 833 833 835 837 837 837 835 834 832 831 830 827 823 822
765 779 767 759 756 760 753 775 776 770 777 781 772 789 791 789 787 781 782 787 793 798 801 807 813 815 819 821 823 826 828 829 829 832 833 833 833 834 836 837 836 835 834 832 830 827 824 823 818
782 776 798 768 758 754 759 800 760 766 770 766 756 765 775 778 781 786 791 804 808 801 804 810 815 816 820 823 823 825 830 829 829 831 833 832 832 835 837 837 836 834 834 831 828 825 823 821 817
789 810 796 779 751 755 766 785 754 758 764 764 759 757 760 782 801 791 788 796 808 816 813 814 815 816 817 821 825 825 828 828 829 829 831 833 834 834 835 836 835 833 832 829 827 824 823 819 818
809 802 791 786 757 751 765 770 755 745 751 758 757 766 776 787 794 791 788 790 812 815 826 817 816 817 819 822 824 824 826 828 829 830 833 835 833 833 833 834 833 832 830 828 826 825 823 820 818
783 787 788 767 748 757 768 767 759 744 742 747 764 771 781 785 794 785 782 790 796 810 821 825 806 813 819 826 823 823 825 828 830 831 833 833 832 832 832 832 831 830 828 827 827 824 821 819 817
777 786 787 763 748 752 764 764 750 748 747 746 760 772 780 790 793 795 791 789 792 795 809 823 817 819 819 822 823 823 825 829 830 834 833 832 831 831 831 830 830 829 828 826 825 823 822 819 817
778 778 783 783 760 756 756 770 759 748 746 755 757 767 773 783 793 800 804 805 807 811 819 825 820 821 822 821 822 822 826 829 832 834 832 831 830 830 829 829 829 829 828 826 824 822 822 818 817
787 759 767 772 784 810 764 823 778 762 759 767 765 772 779 785 792 795 805 811 813 820 823 821 819 819 823 823 820 825 826 830 833 833 832 831 829 828 828 828 828 827 827 826 824 822 821 818 816
777 758 771 773 785 786 783 809 788 759 765 776 770 773 779 783 785 793 805 810 815 817 820 823 819 820 821 819 823 825 830 831 832 831 831 830 829 829 829 828 828 826 825 824 823 821 818 817 814
751 766 775 776 793 828 795 799 787 777 769 772 767 770 778 783 789 798 806 811 816 821 823 821 820 820 820 824 827 829 829 830 830 829 828 828 828 828 829 828 827 825 824 822 821 819 816 815 813
760 786 832 835 835 834 785 796 773 751 751 752 761 769 777 784 792 799 806 811 814 817 819 819 821 825 827 828 829 828 828 829 828 828 828 827 828 827 827 827 826 824 822 820 819 817 814 812 810
774 791 834 843 843 816 778 802 780 747 747 753 759 767 774 784 791 799 805 810 812 815 819 821 824 826 828 828 828 828 828 827 827 827 827 828 828 827 826 825 824 822 820 818 816 814 812 809 807
771 790 774 803 796 818 796 773 766 752 756 758 767 772 778 782 788 796 803 808 810 813 817 819 822 824 826 827 827 827 827 827 827 828 829 828 828 827 826 824 822 820 817 815 813 811 809 807 805
753 755 793 806 831 834 803 789 792 773 771 765 769 774 780 785 788 796 801 805 808 812 815 818 820 823 825 826 827 827 827 828 829 829 829 828 827 826 825 822 820 818 816 813 811 809 807 804 802
761 771 772 786 800 827 827 805 758 759 762 766 765 770 776 784 788 796 799 805 808 811 814 817 819 821 823 825 826 827 829 829 829 830 829 828 827 826 824 821 818 817 815 813 810 808 805 803 799
735 755 767 808 799 794 803 802 741 747 747 750 755 762 771 780 786 795 801 807 809 811 814 817 819 821 823 825 827 829 829 830 830 829 829 828 826 825 823 821 818 816 814 813 810 808 804 800 796